Location: Aressy
(43.2833°N, 0.3167°W)
Time: 17:08:53
(UTC+00:00)

Cosmos 1758 Rocket - Pass Details

Date: 28 January 2021
Orbit: 601 x 636 km, 82.5° (Epoch: 03 March)

Event Time Altitude Azimuth Distance (km) Brightness Sun altitude
Rises 18:46:39 0° 199° (SSW) 2,902 7.4 -18.0°
Reaches altitude 10° 18:48:55 10° 204° (SSW) 2,004 6.6 -18.4°
Maximum altitude 18:53:16 53° 281° (WNW) 786 4.4 -19.2°
Drops below altitude 10° 18:57:41 10° 359° (N) 2,032 6.1 -20.0°
Sets 18:59:59 0° 4° (N) 2,947 6.9 -20.4°
